Year,Month,Day,Hour,Minute,Value (Times are PST for temperature in C)
2008,04,12,00,00,6.00
2008,04,12,00,01,6.00
2008,04,12,00,02,6.00
2008,04,12,00,03,6.00
2008,04,12,00,04,6.00
2008,04,12,00,05,6.00
2008,04,12,00,06,6.00
2008,04,12,00,07,6.00
2008,04,12,00,08,6.00
2008,04,12,00,09,5.90
2008,04,12,00,10,5.90
2008,04,12,00,11,5.90
2008,04,12,00,12,5.90
2008,04,12,00,13,5.90
2008,04,12,00,14,5.90
2008,04,12,00,15,5.90
2008,04,12,00,16,5.90
2008,04,12,00,17,5.90
2008,04,12,00,18,5.90
2008,04,12,00,19,5.90
2008,04,12,00,20,5.90
2008,04,12,00,21,5.90
2008,04,12,00,22,5.90
2008,04,12,00,23,5.90
2008,04,12,00,24,5.90
2008,04,12,00,25,5.90
2008,04,12,00,26,5.80
2008,04,12,00,27,5.80
2008,04,12,00,28,5.80
2008,04,12,00,29,5.80
2008,04,12,00,30,5.80
2008,04,12,00,31,5.80
2008,04,12,00,32,5.80
2008,04,12,00,33,5.80
2008,04,12,00,34,5.80
2008,04,12,00,35,5.80
2008,04,12,00,36,5.70
2008,04,12,00,37,5.70
2008,04,12,00,38,5.70
2008,04,12,00,39,5.70
2008,04,12,00,40,5.70
2008,04,12,00,41,5.70
2008,04,12,00,42,5.60
2008,04,12,00,43,5.60
2008,04,12,00,44,5.60
2008,04,12,00,45,5.60
2008,04,12,00,46,5.60
2008,04,12,00,47,5.50
2008,04,12,00,48,5.50
2008,04,12,00,49,5.50
2008,04,12,00,50,5.40
2008,04,12,00,51,5.40
2008,04,12,00,52,5.40
2008,04,12,00,53,5.40
2008,04,12,00,54,5.40
2008,04,12,00,55,5.40
2008,04,12,00,56,5.40
2008,04,12,00,57,5.40
2008,04,12,00,58,5.40
2008,04,12,00,59,5.40
2008,04,12,01,00,5.40
2008,04,12,01,01,5.50
2008,04,12,01,02,5.50
2008,04,12,01,03,5.50
2008,04,12,01,04,5.60
2008,04,12,01,05,5.60
2008,04,12,01,06,5.60
2008,04,12,01,07,5.60
2008,04,12,01,08,5.60
2008,04,12,01,09,5.60
2008,04,12,01,10,5.60
2008,04,12,01,11,5.60
2008,04,12,01,12,5.70
2008,04,12,01,13,5.70
2008,04,12,01,14,5.70
2008,04,12,01,15,5.70
2008,04,12,01,16,5.70
2008,04,12,01,17,5.70
2008,04,12,01,18,5.70
2008,04,12,01,19,5.70
2008,04,12,01,20,5.70
2008,04,12,01,21,5.70
2008,04,12,01,22,5.80
2008,04,12,01,23,5.80
2008,04,12,01,24,5.80
2008,04,12,01,25,5.80
2008,04,12,01,26,5.80
2008,04,12,01,27,5.90
2008,04,12,01,28,5.90
2008,04,12,01,29,5.90
2008,04,12,01,30,5.80
2008,04,12,01,31,5.80
2008,04,12,01,32,5.80
2008,04,12,01,33,5.80
2008,04,12,01,34,5.80
2008,04,12,01,35,5.80
2008,04,12,01,36,5.70
2008,04,12,01,37,5.70
2008,04,12,01,38,5.70
2008,04,12,01,39,5.60
2008,04,12,01,40,5.60
2008,04,12,01,41,5.60
2008,04,12,01,42,5.70
2008,04,12,01,43,5.80
2008,04,12,01,44,5.90
2008,04,12,01,45,5.90
2008,04,12,01,46,6.00
2008,04,12,01,47,6.00
2008,04,12,01,48,6.00
2008,04,12,01,49,6.00
2008,04,12,01,50,6.00
2008,04,12,01,51,6.00
2008,04,12,01,52,6.00
2008,04,12,01,53,5.90
2008,04,12,01,54,5.90
2008,04,12,01,55,5.80
2008,04,12,01,56,5.70
2008,04,12,01,57,5.70
2008,04,12,01,58,5.60
2008,04,12,01,59,5.50
2008,04,12,02,00,5.50
2008,04,12,02,01,5.50
2008,04,12,02,02,5.40
2008,04,12,02,03,5.30
2008,04,12,02,04,5.30
2008,04,12,02,05,5.20
2008,04,12,02,06,5.10
2008,04,12,02,07,5.10
2008,04,12,02,08,5.10
2008,04,12,02,09,5.00
2008,04,12,02,10,5.00
2008,04,12,02,11,4.90
2008,04,12,02,12,4.90
2008,04,12,02,13,4.90
2008,04,12,02,14,4.90
2008,04,12,02,15,4.90
2008,04,12,02,16,4.90
2008,04,12,02,17,4.80
2008,04,12,02,18,4.90
2008,04,12,02,19,4.90
2008,04,12,02,20,4.90
2008,04,12,02,21,4.90
2008,04,12,02,22,4.90
2008,04,12,02,23,4.80
2008,04,12,02,24,4.80
2008,04,12,02,25,4.80
2008,04,12,02,26,4.80
2008,04,12,02,27,4.90
2008,04,12,02,28,4.90
2008,04,12,02,29,4.90
2008,04,12,02,30,4.90
2008,04,12,02,31,4.90
2008,04,12,02,32,4.90
2008,04,12,02,33,4.90
2008,04,12,02,34,4.90
2008,04,12,02,35,4.90
2008,04,12,02,36,4.90
2008,04,12,02,37,4.80
2008,04,12,02,38,4.80
2008,04,12,02,39,4.90
2008,04,12,02,40,4.90
2008,04,12,02,41,4.90
2008,04,12,02,42,4.90
2008,04,12,02,43,4.90
2008,04,12,02,44,4.90
2008,04,12,02,45,4.90
2008,04,12,02,46,4.90
2008,04,12,02,47,4.80
2008,04,12,02,48,4.80
2008,04,12,02,49,4.80
2008,04,12,02,50,4.80
2008,04,12,02,51,4.80
2008,04,12,02,52,4.80
2008,04,12,02,53,4.70
2008,04,12,02,54,4.70
2008,04,12,02,55,4.70
2008,04,12,02,56,4.70
2008,04,12,02,57,4.70
2008,04,12,02,58,4.70
2008,04,12,02,59,4.70
2008,04,12,03,00,4.70
2008,04,12,03,01,4.70
2008,04,12,03,02,4.70
2008,04,12,03,03,4.70
2008,04,12,03,04,4.70
2008,04,12,03,05,4.70
2008,04,12,03,06,4.70
2008,04,12,03,07,4.70
2008,04,12,03,08,4.70
2008,04,12,03,09,4.70
2008,04,12,03,10,4.70
2008,04,12,03,11,4.70
2008,04,12,03,12,4.70
2008,04,12,03,13,4.70
2008,04,12,03,14,4.70
2008,04,12,03,15,4.70
2008,04,12,03,16,4.80
2008,04,12,03,17,4.80
2008,04,12,03,18,4.90
2008,04,12,03,19,4.90
2008,04,12,03,20,4.90
2008,04,12,03,21,5.00
2008,04,12,03,22,5.00
2008,04,12,03,23,5.10
2008,04,12,03,24,5.10
2008,04,12,03,25,5.10
2008,04,12,03,26,5.10
2008,04,12,03,27,5.10
2008,04,12,03,28,5.10
2008,04,12,03,29,5.10
2008,04,12,03,30,5.10
2008,04,12,03,31,5.10
2008,04,12,03,32,5.10
2008,04,12,03,33,5.20
2008,04,12,03,34,5.20
2008,04,12,03,35,5.30
2008,04,12,03,36,5.40
2008,04,12,03,37,5.40
2008,04,12,03,38,5.50
2008,04,12,03,39,5.50
2008,04,12,03,40,5.50
2008,04,12,03,41,5.50
2008,04,12,03,42,5.50
2008,04,12,03,43,5.50
2008,04,12,03,44,5.50
2008,04,12,03,45,5.60
2008,04,12,03,46,5.60
2008,04,12,03,47,5.60
2008,04,12,03,48,5.60
2008,04,12,03,49,5.60
2008,04,12,03,50,5.50
2008,04,12,03,51,5.50
2008,04,12,03,52,5.50
2008,04,12,03,53,5.50
2008,04,12,03,54,5.50
2008,04,12,03,55,5.50
2008,04,12,03,56,5.40
2008,04,12,03,57,5.50
2008,04,12,03,58,5.50
2008,04,12,03,59,5.50
2008,04,12,04,00,5.60
2008,04,12,04,01,5.60
2008,04,12,04,02,5.60
2008,04,12,04,03,5.60
2008,04,12,04,04,5.60
2008,04,12,04,05,5.60
2008,04,12,04,06,5.60
2008,04,12,04,07,5.60
2008,04,12,04,08,5.70
2008,04,12,04,09,5.70
2008,04,12,04,10,5.70
2008,04,12,04,11,5.70
2008,04,12,04,12,5.70
2008,04,12,04,13,5.70
2008,04,12,04,14,5.80
2008,04,12,04,15,5.80
2008,04,12,04,16,5.90
2008,04,12,04,17,6.00
2008,04,12,04,18,6.00
2008,04,12,04,19,6.10
2008,04,12,04,20,6.00
2008,04,12,04,21,6.00
2008,04,12,04,22,6.00
2008,04,12,04,23,6.00
2008,04,12,04,24,6.00
2008,04,12,04,25,5.90
2008,04,12,04,26,5.90
2008,04,12,04,27,5.90
2008,04,12,04,28,5.90
2008,04,12,04,29,5.90
2008,04,12,04,30,5.80
2008,04,12,04,31,5.80
2008,04,12,04,32,5.80
2008,04,12,04,33,5.70
2008,04,12,04,34,5.70
2008,04,12,04,35,5.60
2008,04,12,04,36,5.60
2008,04,12,04,37,5.60
2008,04,12,04,38,5.50
2008,04,12,04,39,5.50
2008,04,12,04,40,5.40
2008,04,12,04,41,5.40
2008,04,12,04,42,5.40
2008,04,12,04,43,5.30
2008,04,12,04,44,5.30
2008,04,12,04,45,5.30
2008,04,12,04,46,5.30
2008,04,12,04,47,5.20
2008,04,12,04,48,5.20
2008,04,12,04,49,5.10
2008,04,12,04,50,5.10
2008,04,12,04,51,5.10
2008,04,12,04,52,5.10
2008,04,12,04,53,5.00
2008,04,12,04,54,5.00
2008,04,12,04,55,5.00
2008,04,12,04,56,4.90
2008,04,12,04,57,4.90
2008,04,12,04,58,4.90
2008,04,12,04,59,4.90
2008,04,12,05,00,4.90
2008,04,12,05,01,4.80
2008,04,12,05,02,4.80
2008,04,12,05,03,4.80
2008,04,12,05,04,4.80
2008,04,12,05,05,4.70
2008,04,12,05,06,4.70
2008,04,12,05,07,4.60
2008,04,12,05,08,4.60
2008,04,12,05,09,4.60
2008,04,12,05,10,4.60
2008,04,12,05,11,4.50
2008,04,12,05,12,4.50
2008,04,12,05,13,4.40
2008,04,12,05,14,4.40
2008,04,12,05,15,4.40
2008,04,12,05,16,4.40
2008,04,12,05,17,4.30
2008,04,12,05,18,4.30
2008,04,12,05,19,4.30
2008,04,12,05,20,4.30
2008,04,12,05,21,4.30
2008,04,12,05,22,4.20
2008,04,12,05,23,4.20
2008,04,12,05,24,4.20
2008,04,12,05,25,4.20
2008,04,12,05,26,4.20
2008,04,12,05,27,4.10
2008,04,12,05,28,4.10
2008,04,12,05,29,4.10
2008,04,12,05,30,4.10
2008,04,12,05,31,4.10
2008,04,12,05,32,4.10
2008,04,12,05,33,4.00
2008,04,12,05,34,4.00
2008,04,12,05,35,3.90
2008,04,12,05,36,3.90
2008,04,12,05,37,3.90
2008,04,12,05,38,3.90
2008,04,12,05,39,3.80
2008,04,12,05,40,3.80
2008,04,12,05,41,3.80
2008,04,12,05,42,3.80
2008,04,12,05,43,3.80
2008,04,12,05,44,3.70
2008,04,12,05,45,3.70
2008,04,12,05,46,3.70
2008,04,12,05,47,3.70
2008,04,12,05,48,3.70
2008,04,12,05,49,3.70
2008,04,12,05,50,3.60
2008,04,12,05,51,3.60
2008,04,12,05,52,3.60
2008,04,12,05,53,3.60
2008,04,12,05,54,3.60
2008,04,12,05,55,3.50
2008,04,12,05,56,3.50
2008,04,12,05,57,3.50
2008,04,12,05,58,3.50
2008,04,12,05,59,3.40
2008,04,12,06,00,3.40
2008,04,12,06,01,3.40
2008,04,12,06,02,3.40
2008,04,12,06,03,3.40
2008,04,12,06,04,3.40
2008,04,12,06,05,3.40
2008,04,12,06,06,3.30
2008,04,12,06,07,3.30
2008,04,12,06,08,3.30
2008,04,12,06,09,3.30
2008,04,12,06,10,3.30
2008,04,12,06,11,3.30
2008,04,12,06,12,3.30
2008,04,12,06,13,3.20
2008,04,12,06,14,3.20
2008,04,12,06,15,3.20
2008,04,12,06,16,3.20
2008,04,12,06,17,3.20
2008,04,12,06,18,3.20
2008,04,12,06,19,3.20
2008,04,12,06,20,3.20
2008,04,12,06,21,3.10
2008,04,12,06,22,3.10
2008,04,12,06,23,3.10
2008,04,12,06,24,3.10
2008,04,12,06,25,3.10
2008,04,12,06,26,3.10
2008,04,12,06,27,3.10
2008,04,12,06,28,3.10
2008,04,12,06,29,3.10
2008,04,12,06,30,3.10
2008,04,12,06,31,3.10
2008,04,12,06,32,3.00
2008,04,12,06,33,3.00
2008,04,12,06,34,3.00
2008,04,12,06,35,3.00
2008,04,12,06,36,3.00
2008,04,12,06,37,3.00
2008,04,12,06,38,2.90
2008,04,12,06,39,2.90
2008,04,12,06,40,2.90
2008,04,12,06,41,2.90
2008,04,12,06,42,2.90
2008,04,12,06,43,2.90
2008,04,12,06,44,2.90
2008,04,12,06,45,2.90
2008,04,12,06,46,2.90
2008,04,12,06,47,2.90
2008,04,12,06,48,2.90
2008,04,12,06,49,2.90
2008,04,12,06,50,2.80
2008,04,12,06,51,2.80
2008,04,12,06,52,2.80
2008,04,12,06,53,2.80
2008,04,12,06,54,2.80
2008,04,12,06,55,2.80
2008,04,12,06,56,2.80
2008,04,12,06,57,2.80
2008,04,12,06,58,2.80
2008,04,12,06,59,2.80
2008,04,12,07,00,2.80
2008,04,12,07,01,2.80
2008,04,12,07,02,2.80
2008,04,12,07,03,2.80
2008,04,12,07,04,2.80
2008,04,12,07,05,2.80
2008,04,12,07,06,2.80
2008,04,12,07,07,2.80
2008,04,12,07,08,2.80
2008,04,12,07,09,2.80
2008,04,12,07,10,2.80
2008,04,12,07,11,2.80
2008,04,12,07,12,2.80
2008,04,12,07,13,2.80
2008,04,12,07,14,2.80
2008,04,12,07,15,2.80
2008,04,12,07,16,2.80
2008,04,12,07,17,2.80
2008,04,12,07,18,2.80
2008,04,12,07,19,2.80
2008,04,12,07,20,2.80
2008,04,12,07,21,2.80
2008,04,12,07,22,2.80
2008,04,12,07,23,2.80
2008,04,12,07,24,2.80
2008,04,12,07,25,2.80
2008,04,12,07,26,2.80
2008,04,12,07,27,2.80
2008,04,12,07,28,2.80
2008,04,12,07,29,2.80
2008,04,12,07,30,2.80
2008,04,12,07,31,2.80
2008,04,12,07,32,2.80
2008,04,12,07,33,2.80
2008,04,12,07,34,2.80
2008,04,12,07,35,2.80
2008,04,12,07,36,2.80
2008,04,12,07,37,2.80
2008,04,12,07,38,2.80
2008,04,12,07,39,2.80
2008,04,12,07,40,2.90
2008,04,12,07,41,2.90
2008,04,12,07,42,2.90
2008,04,12,07,43,2.90
2008,04,12,07,44,2.90
2008,04,12,07,45,2.90
2008,04,12,07,46,3.00
2008,04,12,07,47,3.00
2008,04,12,07,48,3.10
2008,04,12,07,49,3.10
2008,04,12,07,50,3.10
2008,04,12,07,51,3.20
2008,04,12,07,52,3.20
2008,04,12,07,53,3.30
2008,04,12,07,54,3.30
2008,04,12,07,55,3.40
2008,04,12,07,56,3.40
2008,04,12,07,57,3.40
2008,04,12,07,58,3.50
2008,04,12,07,59,3.50
2008,04,12,08,00,3.60
2008,04,12,08,01,3.60
2008,04,12,08,02,3.70
2008,04,12,08,03,3.80
2008,04,12,08,04,3.80
2008,04,12,08,05,3.90
2008,04,12,08,06,4.00
2008,04,12,08,07,4.00
2008,04,12,08,08,4.10
2008,04,12,08,09,4.20
2008,04,12,08,10,4.30
2008,04,12,08,11,4.30
2008,04,12,08,12,4.40
2008,04,12,08,13,4.50
2008,04,12,08,14,4.60
2008,04,12,08,15,4.70
2008,04,12,08,16,4.70
2008,04,12,08,17,4.80
2008,04,12,08,18,4.90
2008,04,12,08,19,5.00
2008,04,12,08,20,5.10
2008,04,12,08,21,5.30
2008,04,12,08,22,5.40
2008,04,12,08,23,5.50
2008,04,12,08,24,5.60
2008,04,12,08,25,5.80
2008,04,12,08,26,5.90
2008,04,12,08,27,5.90
2008,04,12,08,28,6.10
2008,04,12,08,29,6.10
2008,04,12,08,30,6.20
2008,04,12,08,31,6.30
2008,04,12,08,32,6.40
2008,04,12,08,33,6.40
2008,04,12,08,34,6.50
2008,04,12,08,35,6.60
2008,04,12,08,36,6.70
2008,04,12,08,37,6.80
2008,04,12,08,38,6.90
2008,04,12,08,39,7.00
2008,04,12,08,40,7.10
2008,04,12,08,41,7.20
2008,04,12,08,42,7.20
2008,04,12,08,43,7.30
2008,04,12,08,44,7.40
2008,04,12,08,45,7.50
2008,04,12,08,46,7.50
2008,04,12,08,47,7.60
2008,04,12,08,48,7.70
2008,04,12,08,49,7.80
2008,04,12,08,50,7.80
2008,04,12,08,51,7.80
2008,04,12,08,52,7.80
2008,04,12,08,53,7.90
2008,04,12,08,54,7.90
2008,04,12,08,55,8.00
2008,04,12,08,56,8.10
2008,04,12,08,57,8.10
2008,04,12,08,58,8.20
2008,04,12,08,59,8.20
2008,04,12,09,00,8.30
2008,04,12,09,01,8.40
2008,04,12,09,02,8.40
2008,04,12,09,03,8.50
2008,04,12,09,04,8.60
2008,04,12,09,05,8.60
2008,04,12,09,06,8.70
2008,04,12,09,07,8.80
2008,04,12,09,08,8.80
2008,04,12,09,09,8.90
2008,04,12,09,10,8.90
2008,04,12,09,11,9.00
2008,04,12,09,12,9.00
2008,04,12,09,13,9.10
2008,04,12,09,14,9.20
2008,04,12,09,15,9.30
2008,04,12,09,16,9.30
2008,04,12,09,17,9.50
2008,04,12,09,18,9.60
2008,04,12,09,19,9.70
2008,04,12,09,20,9.80
2008,04,12,09,21,9.90
2008,04,12,09,22,10.00
2008,04,12,09,23,10.10
2008,04,12,09,24,10.30
2008,04,12,09,25,10.40
2008,04,12,09,26,10.50
2008,04,12,09,27,10.60
2008,04,12,09,28,10.80
2008,04,12,09,29,10.80
2008,04,12,09,30,10.90
2008,04,12,09,31,11.00
2008,04,12,09,32,11.00
2008,04,12,09,33,11.10
2008,04,12,09,34,11.20
2008,04,12,09,35,11.20
2008,04,12,09,36,11.30
2008,04,12,09,37,11.40
2008,04,12,09,38,11.40
2008,04,12,09,39,11.50
2008,04,12,09,40,11.60
2008,04,12,09,41,11.70
2008,04,12,09,42,11.70
2008,04,12,09,43,11.80
2008,04,12,09,44,11.80
2008,04,12,09,45,11.80
2008,04,12,09,46,11.80
2008,04,12,09,47,11.80
2008,04,12,09,48,11.90
2008,04,12,09,49,11.90
2008,04,12,09,50,12.00
2008,04,12,09,51,12.20
2008,04,12,09,52,12.30
2008,04,12,09,53,12.40
2008,04,12,09,54,12.60
2008,04,12,09,55,12.70
2008,04,12,09,56,12.80
2008,04,12,09,57,12.90
2008,04,12,09,58,13.10
2008,04,12,09,59,13.20
2008,04,12,10,00,13.30
2008,04,12,10,01,13.30
2008,04,12,10,02,13.40
2008,04,12,10,03,13.40
2008,04,12,10,04,13.50
2008,04,12,10,05,13.50
2008,04,12,10,06,13.50
2008,04,12,10,07,13.60
2008,04,12,10,08,13.70
2008,04,12,10,09,13.70
2008,04,12,10,10,13.80
2008,04,12,10,11,13.80
2008,04,12,10,12,13.80
2008,04,12,10,13,13.90
2008,04,12,10,14,14.00
2008,04,12,10,15,14.10
2008,04,12,10,16,14.20
2008,04,12,10,17,14.20
2008,04,12,10,18,14.30
2008,04,12,10,19,14.30
2008,04,12,10,20,14.40
2008,04,12,10,21,14.40
2008,04,12,10,22,14.30
2008,04,12,10,23,14.30
2008,04,12,10,24,14.30
2008,04,12,10,25,14.30
2008,04,12,10,26,14.30
2008,04,12,10,27,14.30
2008,04,12,10,28,14.30
2008,04,12,10,29,14.40
2008,04,12,10,30,14.40
2008,04,12,10,31,14.40
2008,04,12,10,32,14.50
2008,04,12,10,33,14.60
2008,04,12,10,34,14.60
2008,04,12,10,35,14.70
2008,04,12,10,36,14.70
2008,04,12,10,37,14.70
2008,04,12,10,38,14.70
2008,04,12,10,39,14.80
2008,04,12,10,40,14.80
2008,04,12,10,41,14.90
2008,04,12,10,42,14.80
2008,04,12,10,43,14.80
2008,04,12,10,44,14.80
2008,04,12,10,45,14.80
2008,04,12,10,46,14.80
2008,04,12,10,47,14.90
2008,04,12,10,48,15.00
2008,04,12,10,49,15.00
2008,04,12,10,50,15.00
2008,04,12,10,51,15.00
2008,04,12,10,52,15.10
2008,04,12,10,53,15.10
2008,04,12,10,54,15.10
2008,04,12,10,55,15.10
2008,04,12,10,56,15.20
2008,04,12,10,57,15.20
2008,04,12,10,58,15.10
2008,04,12,10,59,15.00
2008,04,12,11,00,15.00
2008,04,12,11,01,15.00
2008,04,12,11,02,15.00
2008,04,12,11,03,15.00
2008,04,12,11,04,15.00
2008,04,12,11,05,15.00
2008,04,12,11,06,15.00
2008,04,12,11,07,15.00
2008,04,12,11,08,15.00
2008,04,12,11,09,15.00
2008,04,12,11,10,15.10
2008,04,12,11,11,15.10
2008,04,12,11,12,15.10
2008,04,12,11,13,15.00
2008,04,12,11,14,15.00
2008,04,12,11,15,15.10
2008,04,12,11,16,15.20
2008,04,12,11,17,15.20
2008,04,12,11,18,15.30
2008,04,12,11,19,15.30
2008,04,12,11,20,15.30
2008,04,12,11,21,15.40
2008,04,12,11,22,15.50
2008,04,12,11,23,15.50
2008,04,12,11,24,15.50
2008,04,12,11,25,15.60
2008,04,12,11,26,15.50
2008,04,12,11,27,15.50
2008,04,12,11,28,15.40
2008,04,12,11,29,15.30
2008,04,12,11,30,15.30
2008,04,12,11,31,15.30
2008,04,12,11,32,15.40
2008,04,12,11,33,15.60
2008,04,12,11,34,15.70
2008,04,12,11,35,15.70
2008,04,12,11,36,15.90
2008,04,12,11,37,15.90
2008,04,12,11,38,16.00
2008,04,12,11,39,16.00
2008,04,12,11,40,16.00
2008,04,12,11,41,15.90
2008,04,12,11,42,15.90
2008,04,12,11,43,15.90
2008,04,12,11,44,16.00
2008,04,12,11,45,16.00
2008,04,12,11,46,16.00
2008,04,12,11,47,16.10
2008,04,12,11,48,16.10
2008,04,12,11,49,16.10
2008,04,12,11,50,16.20
2008,04,12,11,51,16.30
2008,04,12,11,52,16.40
2008,04,12,11,53,16.40
2008,04,12,11,54,16.40
2008,04,12,11,55,16.40
2008,04,12,11,56,16.50
2008,04,12,11,57,16.50
2008,04,12,11,58,16.60
2008,04,12,11,59,16.60
2008,04,12,12,00,16.60
2008,04,12,12,01,16.60
2008,04,12,12,02,16.60
2008,04,12,12,03,16.50
2008,04,12,12,04,16.50
2008,04,12,12,05,16.40
2008,04,12,12,06,16.40
2008,04,12,12,07,16.30
2008,04,12,12,08,16.40
2008,04,12,12,09,16.40
2008,04,12,12,10,16.50
2008,04,12,12,11,16.60
2008,04,12,12,12,16.60
2008,04,12,12,13,16.50
2008,04,12,12,14,16.50
2008,04,12,12,15,16.50
2008,04,12,12,16,16.50
2008,04,12,12,17,16.50
2008,04,12,12,18,16.60
2008,04,12,12,19,16.70
2008,04,12,12,20,16.70
2008,04,12,12,21,16.80
2008,04,12,12,22,16.80
2008,04,12,12,23,16.90
2008,04,12,12,24,17.00
2008,04,12,12,25,17.10
2008,04,12,12,26,17.10
2008,04,12,12,27,17.20
2008,04,12,12,28,17.20
2008,04,12,12,29,17.20
2008,04,12,12,30,17.20
2008,04,12,12,31,17.20
2008,04,12,12,32,17.20
2008,04,12,12,33,17.10
2008,04,12,12,34,17.00
2008,04,12,12,35,17.00
2008,04,12,12,36,16.90
2008,04,12,12,37,16.90
2008,04,12,12,38,16.80
2008,04,12,12,39,16.70
2008,04,12,12,40,16.70
2008,04,12,12,41,16.60
2008,04,12,12,42,16.70
2008,04,12,12,43,16.70
2008,04,12,12,44,16.80
2008,04,12,12,45,16.90
2008,04,12,12,46,17.10
2008,04,12,12,47,17.20
2008,04,12,12,48,17.30
2008,04,12,12,49,17.40
2008,04,12,12,50,17.40
2008,04,12,12,51,17.40
2008,04,12,12,52,17.40
2008,04,12,12,53,17.40
2008,04,12,12,54,17.40
2008,04,12,12,55,17.40
2008,04,12,12,56,17.30
2008,04,12,12,57,17.40
2008,04,12,12,58,17.40
2008,04,12,12,59,17.50
2008,04,12,13,00,17.60
2008,04,12,13,01,17.70
2008,04,12,13,02,17.70
2008,04,12,13,03,17.80
2008,04,12,13,04,17.80
2008,04,12,13,05,17.90
2008,04,12,13,06,17.90
2008,04,12,13,07,17.90
2008,04,12,13,08,17.90
2008,04,12,13,09,17.80
2008,04,12,13,10,17.80
2008,04,12,13,11,17.80
2008,04,12,13,12,17.80
2008,04,12,13,13,17.80
2008,04,12,13,14,17.90
2008,04,12,13,15,17.90
2008,04,12,13,16,17.90
2008,04,12,13,17,18.00
2008,04,12,13,18,18.00
2008,04,12,13,19,18.10
2008,04,12,13,20,18.20
2008,04,12,13,21,18.20
2008,04,12,13,22,18.30
2008,04,12,13,23,18.30
2008,04,12,13,24,18.30
2008,04,12,13,25,18.20
2008,04,12,13,26,18.10
2008,04,12,13,27,18.10
2008,04,12,13,28,18.00
2008,04,12,13,29,18.00
2008,04,12,13,30,18.00
2008,04,12,13,31,18.10
2008,04,12,13,32,18.10
2008,04,12,13,33,18.10
2008,04,12,13,34,18.20
2008,04,12,13,35,18.20
2008,04,12,13,36,18.30
2008,04,12,13,37,18.30
2008,04,12,13,38,18.30
2008,04,12,13,39,18.20
2008,04,12,13,40,18.30
2008,04,12,13,41,18.30
2008,04,12,13,42,18.20
2008,04,12,13,43,18.20
2008,04,12,13,44,18.20
2008,04,12,13,45,18.20
2008,04,12,13,46,18.20
2008,04,12,13,47,18.30
2008,04,12,13,48,18.40
2008,04,12,13,49,18.40
2008,04,12,13,50,18.40
2008,04,12,13,51,18.50
2008,04,12,13,52,18.60
2008,04,12,13,53,18.70
2008,04,12,13,54,18.80
2008,04,12,13,55,18.90
2008,04,12,13,56,19.00
2008,04,12,13,57,19.00
2008,04,12,13,58,19.10
2008,04,12,13,59,19.00
2008,04,12,14,00,18.90
2008,04,12,14,01,18.80
2008,04,12,14,02,18.80
2008,04,12,14,03,18.80
2008,04,12,14,04,18.80
2008,04,12,14,05,18.80
2008,04,12,14,06,18.80
2008,04,12,14,07,18.80
2008,04,12,14,08,18.90
2008,04,12,14,09,19.00
2008,04,12,14,10,19.20
2008,04,12,14,11,19.30
2008,04,12,14,12,19.30
2008,04,12,14,13,19.30
2008,04,12,14,14,19.20
2008,04,12,14,15,19.10
2008,04,12,14,16,19.10
2008,04,12,14,17,19.10
2008,04,12,14,18,19.20
2008,04,12,14,19,19.30
2008,04,12,14,20,19.30
2008,04,12,14,21,19.40
2008,04,12,14,22,19.40
2008,04,12,14,23,19.40
2008,04,12,14,24,19.30
2008,04,12,14,25,19.30
2008,04,12,14,26,19.30
2008,04,12,14,27,19.30
2008,04,12,14,28,19.30
2008,04,12,14,29,19.40
2008,04,12,14,30,19.30
2008,04,12,14,31,19.30
2008,04,12,14,32,19.40
2008,04,12,14,33,19.40
2008,04,12,14,34,19.40
2008,04,12,14,35,19.50
2008,04,12,14,36,19.50
2008,04,12,14,37,19.50
2008,04,12,14,38,19.40
2008,04,12,14,39,19.40
2008,04,12,14,40,19.40
2008,04,12,14,41,19.40
2008,04,12,14,42,19.50
2008,04,12,14,43,19.50
2008,04,12,14,44,19.60
2008,04,12,14,45,19.60
2008,04,12,14,46,19.60
2008,04,12,14,47,19.60
2008,04,12,14,48,19.60
2008,04,12,14,49,19.60
2008,04,12,14,50,19.60
2008,04,12,14,51,19.70
2008,04,12,14,52,19.70
2008,04,12,14,53,19.80
2008,04,12,14,54,19.80
2008,04,12,14,55,19.80
2008,04,12,14,56,19.80
2008,04,12,14,57,19.90
2008,04,12,14,58,19.90
2008,04,12,14,59,20.00
2008,04,12,15,00,20.00
2008,04,12,15,01,20.00
2008,04,12,15,02,20.10
2008,04,12,15,03,20.20
2008,04,12,15,04,20.30
2008,04,12,15,05,20.30
2008,04,12,15,06,20.40
2008,04,12,15,07,20.40
2008,04,12,15,08,20.40
2008,04,12,15,09,20.40
2008,04,12,15,10,20.30
2008,04,12,15,11,20.20
2008,04,12,15,12,20.10
2008,04,12,15,13,20.10
2008,04,12,15,14,20.10
2008,04,12,15,15,20.20
2008,04,12,15,16,20.20
2008,04,12,15,17,20.20
2008,04,12,15,18,20.10
2008,04,12,15,19,20.10
2008,04,12,15,20,20.20
2008,04,12,15,21,20.30
2008,04,12,15,22,20.30
2008,04,12,15,23,20.30
2008,04,12,15,24,20.40
2008,04,12,15,25,20.40
2008,04,12,15,26,20.30
2008,04,12,15,27,20.40
2008,04,12,15,28,20.40
2008,04,12,15,29,20.30
2008,04,12,15,30,20.30
2008,04,12,15,31,20.30
2008,04,12,15,32,20.30
2008,04,12,15,33,20.40
2008,04,12,15,34,20.40
2008,04,12,15,35,20.40
2008,04,12,15,36,20.40
2008,04,12,15,37,20.30
2008,04,12,15,38,20.30
2008,04,12,15,39,20.30
2008,04,12,15,40,20.30
2008,04,12,15,41,20.40
2008,04,12,15,42,20.50
2008,04,12,15,43,20.60
2008,04,12,15,44,20.70
2008,04,12,15,45,20.80
2008,04,12,15,46,20.80
2008,04,12,15,47,20.70
2008,04,12,15,48,20.60
2008,04,12,15,49,20.50
2008,04,12,15,50,20.50
2008,04,12,15,51,20.50
2008,04,12,15,52,20.50
2008,04,12,15,53,20.50
2008,04,12,15,54,20.50
2008,04,12,15,55,20.60
2008,04,12,15,56,20.60
2008,04,12,15,57,20.60
2008,04,12,15,58,20.70
2008,04,12,15,59,20.60
2008,04,12,16,00,20.60
2008,04,12,16,01,20.60
2008,04,12,16,02,20.60
2008,04,12,16,03,20.60
2008,04,12,16,04,20.60
2008,04,12,16,05,20.60
2008,04,12,16,06,20.60
2008,04,12,16,07,20.60
2008,04,12,16,08,20.60
2008,04,12,16,09,20.50
2008,04,12,16,10,20.60
2008,04,12,16,11,20.60
2008,04,12,16,12,20.70
2008,04,12,16,13,20.80
2008,04,12,16,14,20.90
2008,04,12,16,15,20.90
2008,04,12,16,16,20.80
2008,04,12,16,17,20.80
2008,04,12,16,18,20.80
2008,04,12,16,19,20.80
2008,04,12,16,20,20.70
2008,04,12,16,21,20.60
2008,04,12,16,22,20.60
2008,04,12,16,23,20.60
2008,04,12,16,24,20.70
2008,04,12,16,25,20.70
2008,04,12,16,26,20.80
2008,04,12,16,27,20.80
2008,04,12,16,28,20.80
2008,04,12,16,29,20.90
2008,04,12,16,30,20.90
2008,04,12,16,31,20.90
2008,04,12,16,32,21.00
2008,04,12,16,33,21.10
2008,04,12,16,34,21.20
2008,04,12,16,35,21.20
2008,04,12,16,36,21.20
2008,04,12,16,37,21.20
2008,04,12,16,38,21.20
2008,04,12,16,39,21.20
2008,04,12,16,40,21.20
2008,04,12,16,41,21.20
2008,04,12,16,42,21.20
2008,04,12,16,43,21.30
2008,04,12,16,44,21.40
2008,04,12,16,45,21.50
2008,04,12,16,46,21.50
2008,04,12,16,47,21.70
2008,04,12,16,48,21.80
2008,04,12,16,49,21.80
2008,04,12,16,50,21.90
2008,04,12,16,51,22.00
2008,04,12,16,52,22.10
2008,04,12,16,53,22.20
2008,04,12,16,54,22.30
2008,04,12,16,55,22.30
2008,04,12,16,56,22.30
2008,04,12,16,57,22.40
2008,04,12,16,58,22.40
2008,04,12,16,59,22.30
2008,04,12,17,00,22.40
2008,04,12,17,01,22.40
2008,04,12,17,02,22.40
2008,04,12,17,03,22.50
2008,04,12,17,04,22.50
2008,04,12,17,05,22.40
2008,04,12,17,06,22.40
2008,04,12,17,07,22.40
2008,04,12,17,08,22.40
2008,04,12,17,09,22.40
2008,04,12,17,10,22.40
2008,04,12,17,11,22.40
2008,04,12,17,12,22.40
2008,04,12,17,13,22.40
2008,04,12,17,14,22.40
2008,04,12,17,15,22.40
2008,04,12,17,16,22.30
2008,04,12,17,17,22.30
2008,04,12,17,18,22.30
2008,04,12,17,19,22.20
2008,04,12,17,20,22.20
2008,04,12,17,21,22.20
2008,04,12,17,22,22.20
2008,04,12,17,23,22.20
2008,04,12,17,24,22.20
2008,04,12,17,25,22.20
2008,04,12,17,26,22.10
2008,04,12,17,27,22.10
2008,04,12,17,28,22.10
2008,04,12,17,29,22.10
2008,04,12,17,30,22.10
2008,04,12,17,31,22.10
2008,04,12,17,32,22.10
2008,04,12,17,33,22.00
2008,04,12,17,34,22.00
2008,04,12,17,35,21.90
2008,04,12,17,36,21.90
2008,04,12,17,37,21.80
2008,04,12,17,38,21.80
2008,04,12,17,39,21.80
2008,04,12,17,40,21.80
2008,04,12,17,41,21.70
2008,04,12,17,42,21.70
2008,04,12,17,43,21.70